CW7104 Weather Reports


time (UTC)temp
F
wind
direction
speed
knots
gust
knots
rain 1hr
in
rain 24hr
in
rain mn
in
humidity
%
barometer
mb
20260508025905 52 206 0.0 0.0 0.00 0.00 0.00 58 1016.1
20260508025405 52 206 0.0 0.0 0.00 0.00 0.00 58 1016.1
20260508024905 52 206 0.0 0.0 0.00 0.00 0.00 57 1016.1
20260508024405 53 206 0.0 0.0 0.00 0.00 0.00 56 1016.1
20260508023904 53 206 0.0 0.0 0.00 0.00 0.00 56 1016.0
20260508023405 53 206 0.0 0.0 0.00 0.00 0.00 55 1016.1
20260508022405 53 206 0.0 0.0 0.00 0.00 0.00 54 1016.0
20260508021905 53 206 0.0 0.0 0.00 0.00 0.00 53 1015.9
20260508020905 54 206 0.0 0.0 0.00 0.00 0.00 52 1015.9
20260508020404 54 206 0.0 0.0 0.00 0.00 0.00 51 1015.8
20260508015905 54 206 0.0 0.0 0.00 0.00 0.00 51 1015.7
20260508015405 55 206 0.0 0.0 0.00 0.00 0.00 50 1015.6
20260508014904 55 206 0.0 0.0 0.00 0.00 0.00 49 1015.6
20260508014405 55 206 0.0 0.0 0.00 0.00 0.00 49 1015.6
20260508013405 56 206 0.0 0.0 0.00 0.00 0.00 48 1015.4
20260508012905 56 206 0.0 0.0 0.00 0.00 0.00 47 1015.3
20260508012405 57 206 0.0 0.0 0.00 0.00 0.00 46 1015.2
20260508011905 57 206 0.0 0.0 0.00 0.00 0.00 45 1015.2
20260508010905 58 206 0.0 0.0 0.00 0.00 0.00 44 1015.3
20260508010405 59 206 0.0 0.0 0.00 0.00 0.00 42 1015.2
20260508005905 59 216 0.0 0.0 0.00 0.00 0.00 41 1015.3
20260508004905 60 216 0.0 0.0 0.00 0.00 0.00 39 1015.2
20260508004405 61 216 0.0 0.0 0.00 0.00 0.00 38 1015.1
20260508003904 62 216 0.0 0.0 0.00 0.00 0.00 37 1015.1
20260508002904 63 216 0.0 0.0 0.00 0.00 0.00 35 1015.0
20260508002405 64 216 0.0 0.0 0.00 0.00 0.00 35 1015.1
20260508001905 65 216 0.0 0.0 0.00 0.00 0.00 33 1015.1
20260508001404 66 217 0.0 0.0 0.00 0.00 0.00 33 1015.0
20260508000405 67 217 0.0 0.0 0.00 0.00 0.00 30 1015.2
20260507235405 68 199 0.0 0.0 0.00 0.00 0.00 30 1015.1
20260507234904 68 199 0.0 0.0 0.00 0.00 0.00 31 1015.1
20260507234405 68 161 0.0 0.0 0.00 0.00 0.00 30 1015.0
20260507233404 67 161 0.0 0.0 0.00 0.00 0.00 31 1015.1
20260507232905 67 147 0.0 0.0 0.00 0.00 0.00 31 1015.2
20260507232404 66 178 0.0 0.0 0.00 0.00 0.00 32 1015.2
20260507231905 66 281 0.0 0.0 0.00 0.00 0.00 33 1015.2
20260507230904 67 250 0.0 0.0 0.00 0.00 0.00 30 1015.4
20260507230404 67 258 0.0 0.0 0.00 0.00 0.00 30 1015.4
20260507225905 66 208 0.0 0.0 0.00 0.00 0.00 33 1015.5
20260507225405 66 352 0.0 0.0 0.00 0.00 0.00 30 1015.5
20260507224904 66 351 0.0 0.0 0.00 0.00 0.00 30 1015.5
20260507224405 67 257 0.0 0.0 0.00 0.00 0.00 29 1015.5
20260507223404 66 241 0.0 0.0 0.00 0.00 0.00 32 1015.6
20260507222904 66 298 0.0 0.0 0.00 0.00 0.00 32 1015.6
20260507222405 66 292 0.0 0.0 0.00 0.00 0.00 31 1015.7
20260507221905 67 333 0.0 0.0 0.00 0.00 0.00 28 1015.7
20260507221404 67 267 0.0 0.0 0.00 0.00 0.00 29 1015.8
20260507220905 67 259 0.0 0.0 0.00 0.00 0.00 29 1015.8
20260507220405 67 29 0.0 0.0 0.00 0.00 0.00 30 1015.7
20260507215905 67 339 0.0 0.0 0.00 0.00 0.00 32 1015.7
20260507215405 66 15 0.0 0.0 0.00 0.00 0.00 31 1015.7
20260507214904 67 346 0.0 0.0 0.00 0.00 0.00 32 1015.7
20260507214405 66 271 0.0 0.0 0.00 0.00 0.00 29 1015.8
20260507212905 66 274 0.0 0.0 0.00 0.00 0.00 31 1015.8
20260507212404 66 339 0.0 0.0 0.00 0.00 0.00 33 1015.7
20260507211904 67 289 0.0 0.0 0.00 0.00 0.00 31 1015.6
20260507211404 68 339 0.0 0.0 0.00 0.00 0.00 32 1015.6
20260507210905 67 32 0.0 0.0 0.00 0.00 0.00 32 1015.6
20260507210404 67 54 0.0 0.0 0.00 0.00 0.00 33 1015.6
20260507205905 66 27 0.0 0.0 0.00 0.00 0.00 37 1015.6
20260507205404 66 347 0.0 0.0 0.00 0.00 0.00 31 1015.6
20260507204905 66 314 0.0 0.0 0.00 0.00 0.00 32 1015.7
20260507204404 66 284 0.0 0.0 0.00 0.00 0.00 32 1015.8
20260507203904 66 252 0.0 0.0 0.00 0.00 0.00 35 1015.8
20260507202404 66 0 0.0 0.0 0.00 0.00 0.00 34 1015.9
20260507201904 66 268 0.0 0.0 0.00 0.00 0.00 31 1015.9
20260507201404 66 291 0.0 0.0 0.00 0.00 0.00 31 1016.0
20260507200904 66 3 0.0 0.0 0.00 0.00 0.00 33 1016.0
20260507200404 66 339 0.0 0.0 0.00 0.00 0.00 33 1016.1
20260507195904 67 3 0.0 0.0 0.00 0.00 0.00 32 1016.1
20260507194905 67 39 0.0 0.0 0.00 0.00 0.00 34 1016.2
20260507193904 66 75 0.0 0.0 0.00 0.00 0.00 33 1016.4
20260507193404 66 4 0.0 0.0 0.00 0.00 0.00 31 1016.4
20260507192404 65 334 0.0 0.0 0.00 0.00 0.00 34 1016.4
20260507191904 65 296 0.0 0.0 0.00 0.00 0.00 32 1016.4
20260507191405 65 307 0.0 0.0 0.00 0.00 0.00 31 1016.5
20260507190404 64 38 0.0 0.0 0.00 0.00 0.00 33 1016.6
20260507185905 64 332 0.0 0.0 0.00 0.00 0.00 33 1016.6
20260507185404 64 329 0.0 0.0 0.00 0.00 0.00 31 1016.6
20260507184404 64 279 0.0 0.0 0.00 0.00 0.00 32 1016.7
20260507183904 64 356 0.0 0.0 0.00 0.00 0.00 32 1016.8
20260507182904 63 346 0.0 0.0 0.00 0.00 0.00 32 1016.7
20260507181904 63 323 0.0 0.0 0.00 0.00 0.00 33 1016.7
20260507181404 63 338 0.0 0.0 0.00 0.00 0.00 33 1016.7
20260507180904 62 139 0.0 0.0 0.00 0.00 0.00 34 1016.8
20260507180404 63 341 0.0 0.0 0.00 0.00 0.00 36 1017.0
20260507175904 63 345 0.0 0.0 0.00 0.00 0.00 34 1016.9
20260507175404 63 346 0.0 0.0 0.00 0.00 0.00 34 1017.0
20260507174904 63 0 0.0 0.0 0.00 0.00 0.00 38 1017.0
20260507173904 62 242 0.0 0.0 0.00 0.00 0.00 34 1017.2
20260507173404 62 358 0.0 0.0 0.00 0.00 0.00 38 1017.3
20260507172904 61 210 0.0 0.0 0.00 0.00 0.00 35 1017.4
20260507172404 62 358 0.0 0.0 0.00 0.00 0.00 34 1017.5
20260507171905 62 2 0.0 0.0 0.00 0.00 0.00 37 1017.4
20260507171404 62 352 0.0 0.0 0.00 0.00 0.00 35 1017.5
20260507170904 62 0 0.0 0.0 0.00 0.00 0.00 35 1017.5
20260507170404 62 325 0.0 0.0 0.00 0.00 0.00 36 1017.6
20260507165904 62 31 0.0 0.0 0.00 0.00 0.00 37 1017.6
20260507165404 61 8 0.0 0.0 0.00 0.00 0.00 39 1017.7
20260507164404 61 295 0.0 0.0 0.00 0.00 0.00 34 1017.7
20260507163904 61 297 0.0 0.0 0.00 0.00 0.00 34 1017.7
20260507163404 61 4 0.0 0.0 0.00 0.00 0.00 36 1017.7
20260507162904 61 9 0.0 0.0 0.00 0.00 0.00 38 1017.7
20260507162404 61 254 0.0 0.0 0.00 0.00 0.00 36 1017.9
20260507161904 61 265 0.0 0.0 0.00 0.00 0.00 36 1017.9
20260507161404 61 326 0.0 0.0 0.00 0.00 0.00 34 1017.9
20260507160904 61 16 0.0 0.0 0.00 0.00 0.00 38 1018.0
20260507160404 61 25 0.0 0.0 0.00 0.00 0.00 39 1017.9
20260507155404 60 304 0.0 0.0 0.00 0.00 0.00 39 1017.9
20260507154904 60 294 0.0 0.0 0.00 0.00 0.00 38 1018.0
20260507154404 60 324 0.0 0.0 0.00 0.00 0.00 38 1018.2
20260507153904 60 332 0.0 0.0 0.00 0.00 0.00 36 1018.3
20260507153404 60 323 0.0 0.0 0.00 0.00 0.00 34 1018.2
20260507152905 60 276 0.0 0.0 0.00 0.00 0.00 34 1018.2
20260507150904 60 21 0.0 0.0 0.00 0.00 0.00 37 1018.1
20260507150404 59 37 0.0 0.0 0.00 0.00 0.00 35 1018.1
20260507145904 59 16 0.0 0.0 0.00 0.00 0.00 37 1018.2
20260507144904 58 333 0.0 0.0 0.00 0.00 0.00 41 1018.2
20260507144404 58 31 0.0 0.0 0.00 0.00 0.00 40 1018.2
20260507143904 58 24 0.0 0.0 0.00 0.00 0.00 44 1018.1
20260507142904 57 25 0.0 0.0 0.00 0.00 0.00 48 1018.3
20260507142404 56 9 0.0 0.0 0.00 0.00 0.00 46 1018.3
20260507141904 55 48 0.0 0.0 0.00 0.00 0.00 49 1018.3
20260507141404 55 39 0.0 0.0 0.00 0.00 0.00 48 1018.3
20260507140903 54 45 0.0 0.0 0.00 0.00 0.00 49 1018.2
20260507140404 54 55 0.0 0.0 0.00 0.00 0.00 52 1018.2
20260507135905 53 31 0.0 0.0 0.00 0.00 0.00 52 1018.2
20260507135404 53 27 0.0 0.0 0.00 0.00 0.00 54 1018.3
20260507134904 52 23 0.0 0.0 0.00 0.00 0.00 53 1018.3
20260507133903 52 31 0.0 0.0 0.00 0.00 0.00 56 1018.2
20260507133404 51 29 0.0 0.0 0.00 0.00 0.00 55 1018.4
20260507132404 50 31 0.0 0.0 0.00 0.00 0.00 58 1018.2
20260507131906 50 67 0.0 0.0 0.00 0.00 0.00 60 1018.1
20260507130903 49 53 0.0 0.0 0.00 0.00 0.00 62 1018.0
20260507130404 48 67 0.0 0.0 0.00 0.00 0.00 63 1018.0
20260507125904 48 68 0.0 0.0 0.00 0.00 0.00 64 1017.9
20260507125404 47 38 0.0 0.0 0.00 0.00 0.00 69 1017.9
20260507124904 47 9 0.0 0.0 0.00 0.00 0.00 69 1018.0
20260507124404 46 10 0.0 0.0 0.00 0.00 0.00 72 1017.9
20260507123904 46 9 0.0 0.0 0.00 0.00 0.00 73 1017.9
20260507123404 46 9 0.0 0.0 0.00 0.00 0.00 74 1017.9
20260507122903 45 10 0.0 0.0 0.00 0.00 0.00 73 1017.8
20260507122404 45 10 0.0 0.0 0.00 0.00 0.00 74 1017.8
20260507121403 44 11 0.0 0.0 0.00 0.00 0.00 74 1017.8
20260507120904 44 7 0.0 0.0 0.00 0.00 0.00 75 1017.8
20260507120404 44 9 0.0 0.0 0.00 0.00 0.00 76 1017.7
20260507115903 43 9 0.0 0.0 0.00 0.00 0.00 76 1017.6
20260507114903 42 9 0.0 0.0 0.00 0.00 0.00 78 1017.6
20260507114404 42 9 0.0 0.0 0.00 0.00 0.00 78 1017.6
20260507113404 41 9 0.0 0.0 0.00 0.00 0.00 78 1017.5
20260507112904 41 9 0.0 0.0 0.00 0.00 0.00 78 1017.5
20260507111404 40 9 0.0 0.0 0.00 0.00 0.00 77 1017.5
20260507110903 40 9 0.0 0.0 0.00 0.00 0.00 77 1017.4
20260507105903 41 10 0.0 0.0 0.00 0.00 0.00 76 1017.5
20260507105404 41 9 0.0 0.0 0.00 0.00 0.00 76 1017.5
20260507104903 41 9 0.0 0.0 0.00 0.00 0.00 76 1017.5
20260507104404 41 9 0.0 0.0 0.00 0.00 0.00 76 1017.5
20260507103904 41 9 0.0 0.0 0.00 0.00 0.00 75 1017.5
20260507103403 41 9 0.0 0.0 0.00 0.00 0.00 75 1017.6
20260507102904 42 10 0.0 0.0 0.00 0.00 0.00 75 1017.6
20260507101904 42 9 0.0 0.0 0.00 0.00 0.00 74 1017.5
20260507101404 43 9 0.0 0.0 0.00 0.00 0.00 73 1017.6
20260507100903 43 10 0.0 0.0 0.00 0.00 0.00 74 1017.6
20260507095903 43 10 0.0 0.0 0.00 0.00 0.00 73 1017.6
20260507095404 44 10 0.0 0.0 0.00 0.00 0.00 74 1017.6
20260507094904 44 10 0.0 0.0 0.00 0.00 0.00 74 1017.4
20260507093904 44 10 0.0 0.0 0.00 0.00 0.00 74 1017.4
20260507093404 44 10 0.0 0.0 0.00 0.00 0.00 74 1017.4
20260507092903 44 11 0.0 0.0 0.00 0.00 0.00 75 1017.3
20260507092404 44 9 0.0 0.0 0.00 0.00 0.00 75 1017.2
20260507091904 44 6 0.0 0.0 0.00 0.00 0.00 75 1017.2
20260507090904 44 8 0.0 0.0 0.00 0.00 0.00 74 1017.1
20260507085905 45 12 0.0 0.0 0.00 0.00 0.00 74 1017.1
20260507085406 45 12 0.0 0.0 0.00 0.00 0.00 74 1017.1
20260507084905 46 12 0.0 0.0 0.00 0.00 0.00 74 1017.0
20260507084405 46 13 0.0 0.0 0.00 0.00 0.00 74 1017.0
20260507083905 46 12 0.0 0.0 0.00 0.00 0.00 74 1016.9
20260507083405 46 12 0.0 0.0 0.00 0.00 0.00 74 1016.9
20260507082905 46 12 0.0 0.0 0.00 0.00 0.00 74 1016.8
20260507082405 46 12 0.0 0.0 0.00 0.00 0.00 74 1016.8
20260507080405 46 12 0.0 0.0 0.00 0.00 0.00 74 1016.7
20260507075905 46 12 0.0 0.0 0.00 0.00 0.00 74 1016.6
20260507075406 46 12 0.0 0.0 0.00 0.00 0.00 74 1016.6
20260507073405 47 12 0.0 0.0 0.00 0.00 0.00 75 1016.4
20260507072405 47 12 0.0 0.0 0.00 0.00 0.00 75 1016.4
20260507071905 47 12 0.0 0.0 0.00 0.00 0.00 76 1016.3
20260507071405 47 12 0.0 0.0 0.00 0.00 0.00 76 1016.3
20260507070905 47 12 0.0 0.0 0.00 0.00 0.00 76 1016.4
20260507070405 47 12 0.0 0.0 0.00 0.00 0.00 76 1016.4
20260507065906 47 12 0.0 0.0 0.00 0.00 0.00 76 1016.4
20260507065405 47 12 0.0 0.0 0.00 0.00 0.00 76 1016.4
20260507064905 47 12 0.0 0.0 0.00 0.00 0.00 76 1016.5
20260507064405 47 12 0.0 0.0 0.00 0.00 0.00 76 1016.4
20260507063905 47 12 0.0 0.0 0.00 0.00 0.00 76 1016.5
20260507063405 47 12 0.0 0.0 0.00 0.00 0.00 76 1016.5
20260507062905 47 12 0.0 0.0 0.00 0.00 0.00 76 1016.5
20260507062406 47 12 0.0 0.0 0.00 0.00 0.00 76 1016.6
20260507061905 48 12 0.0 0.0 0.00 0.00 0.00 76 1016.7
20260507061405 48 12 0.0 0.0 0.00 0.00 0.00 76 1016.6
20260507060905 48 12 0.0 0.0 0.00 0.00 0.00 75 1016.6
20260507060404 48 12 0.0 0.0 0.00 0.00 0.00 75 1016.7
20260507055404 49 13 0.0 0.0 0.00 0.00 0.00 75 1016.6
20260507054905 49 12 0.0 0.0 0.00 0.00 0.00 75 1016.6
20260507054404 49 12 0.0 0.0 0.00 0.00 0.00 75 1016.5
20260507053405 49 12 0.0 0.0 0.00 0.00 0.00 76 1016.7
20260507052905 49 13 0.0 0.0 0.00 0.00 0.00 76 1016.7
20260507052405 49 12 0.0 0.0 0.00 0.00 0.00 77 1016.8
20260507051905 49 12 0.0 0.0 0.00 0.00 0.00 77 1016.9
20260507051405 49 7 0.0 0.0 0.00 0.00 0.00 77 1016.9
20260507050905 49 12 0.0 0.0 0.00 0.00 0.00 77 1016.8
20260507050405 49 13 0.0 0.0 0.00 0.00 0.00 77 1016.8
20260507045905 49 12 0.0 0.0 0.00 0.00 0.00 77 1016.8
20260507045405 49 12 0.0 0.0 0.00 0.00 0.00 77 1016.6
20260507044905 49 11 0.0 0.0 0.00 0.00 0.00 77 1016.5
20260507044405 49 13 0.0 0.0 0.00 0.00 0.00 78 1016.4
20260507043905 49 13 0.0 0.0 0.00 0.00 0.00 78 1016.5
20260507042905 49 5 0.0 0.0 0.00 0.00 0.00 78 1016.7
20260507042405 49 8 0.0 0.0 0.00 0.00 0.00 78 1016.6
20260507041905 49 11 0.0 0.0 0.00 0.00 0.00 78 1016.5
20260507041405 49 14 0.0 0.0 0.00 0.00 0.00 78 1016.3
20260507040905 49 12 0.0 0.0 0.00 0.00 0.00 78 1016.3
20260507040405 50 9 0.0 0.0 0.00 0.00 0.00 77 1016.4
20260507035905 49 9 0.0 0.0 0.00 0.00 0.00 77 1016.4
20260507035405 49 13 0.0 0.0 0.00 0.00 0.00 77 1016.5
20260507034404 49 8 0.0 0.0 0.00 0.00 0.00 76 1016.6
20260507033905 49 15 0.0 0.0 0.00 0.00 0.00 76 1016.5
20260507033405 49 15 0.0 0.0 0.00 0.00 0.00 75 1016.6
20260507032906 49 15 0.0 0.0 0.00 0.00 0.00 74 1016.6
20260507032405 49 15 0.0 0.0 0.00 0.00 0.00 74 1016.6
20260507031905 49 15 0.0 0.0 0.00 0.00 0.00 74 1016.6
20260507030905 50 15 0.0 0.0 0.00 0.00 0.00 74 1016.7
20260507030405 50 15 0.0 0.0 0.00 0.00 0.00 74 1016.8